sat.trackr.live / text

‹ back to catalog

QIANFAN-218

NORAD 69817 · 2026-153T

PAYLOAD ACTIVE UNKNOWN

§ Identity

Operator
Country
PRC
Launch date
2026-07-04
Launch site
TAISC
Launch vehicle
Mass (kg)
RCS (m²)

External: N2YO · Heavens-Above · Gunter

§ Orbital elements

Epoch: 2026-09-20T04:08:27.823200Z

Period
101.24 min
Inclination
88.9979°
Eccentricity
0.0005891
Mean motion
14.22320247 rev/d
Perigee alt
813.3 km
Apogee alt
821.8 km
Semi-major
7,195.7 km
B*
1.6799e-4
RAAN
351.3347°
Arg perigee
1.2052°
Mean anomaly
358.9152°
Rev number
1,109

§ Raw data

QIANFAN-2181 69817U 26153T   26263.17254425  .00000388  00000+0  16799-3 0  99902 69817  88.9979 351.3347 0005891   1.2052 358.9152 14.22320247 11093

JSON: /api/v1/satellites/69817 · /tle

For live sub-satellite position, see the globe view (requires WebGL).

§ Visibility from observer

Set your observer location to see the next 7 days of passes ≥ 10°. The values pass through the URL so the page stays shareable.

No JS? Fill the form by hand. The geolocation button needs JavaScript.